EHI
22 20 17 16 14 13 13 11 9 6 4 3 3 3 4 4 5 6 6 6 5 3 1 1 2 4 4 2 0 0 1 1 1 0 1 2 3 3 3 3 3 3 3
22 21 19 17 15 14 12 11 8 6 4 4 4 5 5 6 7 7 7 7 7 6 4 4 5 5 5 3 2 2 2 2 2 1 1 3 3 3 3 3 3 3 3
22 21 20 18 16 14 12 10 9 8 7 6 7 8 9 9 9 8 8 8 9 9 8 7 7 7 6 5 5 5 4 3 3 3 3 3 3 3 3 3 3 3 3
24 21 20 19 16 14 12 11 10 10 10 9 9 11 12 12 11 10 9 9 9 10 9 9 9 9 8 6 6 6 5 4 3 3 3 3 3 3 3 3 3 3 3
27 24 20 18 16 14 13 12 10 10 10 10 10 12 12 12 11 10 9 8 8 8 9 9 9 8 7 6 5 4 4 3 3 3 3 3 3 3 3 3 3 3 3
27 24 20 17 15 13 13 12 11 10 9 9 11 12 12 11 9 8 8 8 8 8 9 9 9 7 5 4 4 3 3 3 3 3 4 3 3 3 3 3 3 3 3
24 22 20 18 15 13 13 14 13 12 10 9 12 13 12 11 9 6 5 6 8 9 8 7 6 4 3 2 2 2 3 3 3 4 4 4 3 3 3 3 3 3 3
23 22 22 21 17 15 15 17 16 13 11 10 12 14 14 12 10 6 4 5 6 6 5 3 2 1 1 1 1 1 1 2 2 3 3 3 2 3 3 3 3 3 3
22 21 22 21 19 16 16 16 16 14 12 10 11 14 14 13 10 7 4 5 5 5 4 2 1 0 0 0 0 0 0 1 1 1 1 1 1 1 2 3 3 3 2
21 19 19 19 19 16 14 15 16 15 12 9 10 13 14 12 9 6 4 4 5 5 5 4 2 0 0 0 0 0 0 0 0 0 0 0 0 0 1 2 2 1 1
20 19 18 19 19 17 15 15 17 17 14 11 11 11 11 9 6 4 3 3 4 5 5 5 4 2 0 0 0 0 0 0 0 0 0 0 0 0 0 1 1 0 0
21 20 20 20 20 20 18 17 19 19 17 15 13 10 8 5 4 4 2 2 2 3 4 4 4 3 1 0 0 0 0 0 0 0 0 0 0 0 0 0 0 0 0
22 21 20 20 21 21 20 20 21 22 20 17 14 10 7 4 3 3 2 1 1 1 2 2 2 1 0 0 0 0 0 0 0 0 0 0 0 0 0 0 0 0 0
22 21 20 20 20 20 20 19 20 21 19 16 13 11 8 6 4 3 1 0 0 0 1 1 0 0 0 0 0 0 0 0 0 0 0 0 0 0 0 0 0 0 0
21 20 20 19 17 17 15 14 14 14 13 11 10 9 8 6 4 2 1 0 0 0 0 0 0 0 0 0 0 0 0 0 0 0 0 0 0 0 0 0 0 0 0
20 19 18 17 16 13 10 10 9 7 6 5 5 5 4 3 2 1 0 0 0 0 0 0 0 0 0 0 0 0 0 0 0 0 0 0 0 0 0 0 0 0 0
18 17 17 16 15 12 9 8 7 5 2 1 1 1 1 0 0 0 0 0 0 0 0 0 0 0 0 0 0 0 0 0 0 0 0 0 0 0 0 0 0 0 0
16 15 14 14 13 11 8 7 7 5 2 0 0 0 0 0 0 0 0 0 0 0 0 0 0 0 0 0 0 0 0 0 0 0 0 0 0 0 0 0 0 0 0
12 12 12 11 10 8 6 6 6 4 2 0 0 0 0 0 0 0 0 0 0 0 0 0 0 0 0 0 0 0 0 0 0 0 0 0 0 0 0 0 0 0 0
9 9 8 8 7 4 2 3 4 3 1 0 0 0 0 0 0 0 0 0 0 0 0 0 0 0 0 0 0 0 0 0 0 0 0 0 0 0 0 0 0 0 0
5 4 4 4 3 1 0 1 1 1 0 0 0 0 0 0 0 0 0 0 0 0 0 0 0 0 0 0 0 0 0 0 0 0 0 0 0 0 0 0 0 0 0
1 1 1 1 1 0 0 0 0 0 0 0 0 0 0 0 0 0 0 0 0 0 0 0 0 0 0 0 0 0 0 0 0 0 0 0 0 0 0 0 0 0 0
0 0 0 0 0 0 0 0 0 0 0 0 0 0 0 0 0 0 0 0 0 0 0 0 0 0 0 0 0 0 0 0 0 0 0 0 0 0 0 0 0 0 0
0 0 0 0 0 0 0 0 0 0 0 0 0 0 0 0 0 0 0 0 0 0 0 0 0 0 0 0 0 0 0 0 0 0 0 0 0 0 0 0 0 0 0
0 0 0 0 0 0 0 0 0 0 0 0 0 0 0 0 0 0 0 0 0 0 0 0 0 0 0 0 0 0 0 0 0 0 0 0 0 0 0 0 0 0 0
0 0 0 0 0 0 0 0 0 0 0 0 0 0 0 0 0 0 0 0 0 0 0 0 0 0 0 0 0 0 0 0 0 0 0 0 0 0 0 0 0 0 0
Wind_Speed
5 4 4 3 3 3 2 2 2 1 2 2 2 2 2 2 1 1 1 2 2 2 2 1 2 1 1 1 1 1 1 2 3 3 2 2 1 1 1 1 2 2 2
5 4 4 3 3 3 2 2 2 2 2 2 2 2 2 2 2 2 2 2 2 2 2 1 2 1 1 1 1 1 1 1 2 3 2 2 2 2 2 1 1 2 2
5 5 4 3 3 3 3 3 2 2 1 1 1 1 2 2 2 3 3 2 3 3 2 2 2 1 1 1 1 1 1 1 1 2 2 2 1 1 1 1 1 1 2
5 5 5 4 4 3 3 2 2 2 2 1 1 2 2 2 2 3 2 2 2 2 2 2 2 2 2 2 1 1 1 1 1 1 1 1 1 1 0 0 1 1 1
5 5 4 4 3 3 2 2 2 2 2 2 2 1 2 2 2 2 2 2 2 2 1 1 2 2 2 2 1 1 1 1 1 1 1 1 1 1 1 1 1 1 1
5 5 4 4 3 3 3 2 2 2 2 2 2 2 2 2 3 3 2 2 2 2 2 2 2 1 1 1 1 2 2 3 2 2 2 3 3 2 2 2 1 0 2
5 5 4 4 4 4 4 2 2 2 2 2 2 2 2 4 4 3 4 3 2 2 2 2 2 2 1 1 1 2 2 3 4 4 4 4 4 4 3 2 2 2 3
4 4 4 4 4 4 4 4 3 2 2 3 3 3 2 4 3 3 3 2 2 3 3 4 3 3 2 1 1 2 2 2 3 3 4 5 5 4 4 5 4 2 2
4 4 4 4 4 4 4 4 4 3 3 3 2 2 3 3 3 3 2 1 2 3 3 2 3 2 3 1 0 1 3 4 3 2 3 4 4 3 2 2 1 1 2
5 4 4 4 4 4 4 4 3 3 3 2 2 2 2 2 3 2 1 1 1 2 2 2 2 3 3 1 1 1 2 3 3 3 2 2 2 2 2 3 3 2 1
4 3 3 4 4 4 3 3 2 2 2 1 1 1 1 1 1 1 1 0 1 1 2 2 2 2 2 3 2 3 4 3 2 1 1 1 1 1 1 1 2 2 2
3 3 3 3 3 2 2 2 2 2 2 2 1 0 0 1 0 1 1 1 1 1 2 2 2 2 3 3 2 3 3 1 1 1 1 1 2 2 2 2 2 2 2
3 3 2 2 1 2 3 3 2 2 2 2 1 1 1 1 1 1 2 1 1 1 2 3 3 3 3 2 3 3 1 0 0 1 1 2 2 2 2 1 1 1 1
3 2 2 2 1 1 1 2 2 2 2 2 2 2 1 1 1 1 1 1 2 1 1 2 3 2 2 2 2 1 1 1 2 2 2 2 1 1 1 1 1 1 1
2 2 1 2 2 1 0 1 2 2 4 4 3 3 3 2 3 3 1 1 1 1 0 1 1 1 1 1 1 1 1 1 1 1 1 1 1 1 2 1 0 0 1
2 2 2 2 2 2 1 1 2 0 0 2 3 3 2 3 3 3 2 2 1 1 1 0 0 1 1 1 1 1 1 1 1 1 1 1 1 1 2 1 1 1 2
3 2 2 2 3 3 2 2 1 1 2 1 1 2 3 3 3 3 2 1 0 2 1 0 1 1 1 1 1 1 2 2 1 1 1 1 1 1 1 1 1 1 1
2 3 2 3 3 3 3 3 3 3 2 1 1 0 2 2 2 2 1 2 1 1 0 1 1 1 1 1 1 1 1 1 1 1 1 1 1 1 1 2 1 1 1
2 2 2 2 2 2 2 2 2 3 3 1 0 1 0 1 0 0 1 1 1 1 1 1 1 1 1 1 1 1 1 0 0 0 1 1 1 1 1 1 1 2 1
2 3 2 2 2 2 2 2 2 3 2 2 2 1 1 2 0 1 1 1 1 1 1 1 1 1 1 1 1 1 0 0 1 1 1 1 1 1 1 2 2 2 2
2 2 2 1 2 2 2 2 2 3 3 2 2 2 4 3 3 3 2 2 2 2 2 2 1 1 1 1 1 1 1 1 1 1 1 1 1 1 1 2 2 2 2
1 2 2 2 2 2 2 2 2 3 3 3 2 2 4 2 2 2 2 2 2 2 2 2 2 1 1 1 1 1 1 1 1 1 1 1 1 1 1 1 1 1 1
2 2 2 2 2 2 2 2 2 2 3 3 3 2 2 2 2 2 2 2 2 1 1 1 1 1 0 0 1 2 2 2 2 2 1 1 1 1 1 1 2 2 2
2 2 2 2 2 2 2 2 2 2 2 3 3 3 3 2 2 2 2 2 1 1 1 1 1 1 1 1 0 0 1 1 1 1 2 2 2 2 1 1 1 2 2
1 1 2 2 2 2 2 2 2 2 2 2 2 2 2 2 1 1 1 1 1 1 1 1 1 1 2 1 1 1 1 1 1 1 1 2 2 2 2 2 2 2 2
1 1 2 2 2 2 2 2 2 2 1 1 2 2 2 2 1 1 1 1 1 1 1 1 1 1 2 2 1 1 1 2 2 2 1 1 2 2 2 2 3 2 3
Wind_Direction
171 174 173 177 179 170 176 196 199 209 206 202 208 207 210 210 206 188 224 222 221 259 270 251 266 271 277 280 259 205 205 187 233 278 281 293 281 256 279 246 226 214 216
170 164 169 171 165 167 186 201 191 205 224 215 206 208 216 218 218 203 220 235 222 236 255 258 271 283 292 271 251 250 239 217 202 265 295 302 283 246 249 242 232 208 204
164 160 163 166 173 184 196 201 193 198 218 211 192 209 225 229 233 231 219 223 228 226 227 227 242 232 274 283 266 273 260 265 213 221 274 287 291 291 298 294 297 283 217
168 167 174 185 189 192 194 194 193 191 193 201 205 219 231 237 243 233 218 227 234 243 238 229 222 206 217 235 258 259 249 251 236 224 278 297 294 290 3 303 319 313 274
164 169 184 185 176 173 181 196 202 205 210 211 214 230 241 236 244 224 221 219 221 231 242 242 223 205 208 224 238 234 213 219 216 222 257 291 284 281 251 238 253 292 283
165 175 175 169 170 177 185 191 200 218 244 233 223 231 248 260 267 254 233 236 229 211 234 260 254 242 250 276 268 256 220 211 217 218 239 243 253 238 229 226 219 260 280
173 178 182 180 183 195 199 195 218 232 246 253 236 236 252 259 259 251 239 233 238 232 223 229 250 263 259 250 305 326 294 253 221 209 221 238 238 229 208 223 219 209 236
176 181 189 188 197 203 195 198 216 226 233 244 237 227 238 266 268 255 253 247 241 242 226 213 215 239 251 253 284 322 308 290 256 226 224 236 238 229 208 207 210 222 265
183 192 196 193 196 195 200 210 213 210 226 238 238 223 233 263 261 254 249 235 241 253 241 221 212 228 247 245 242 298 308 305 304 267 243 240 242 239 205 160 161 164 262
196 197 192 189 192 201 212 215 211 203 214 218 220 225 225 253 265 265 252 190 250 276 285 268 244 237 247 238 195 216 263 283 305 330 326 308 283 260 206 192 194 195 225
198 193 193 199 204 207 209 207 206 206 199 201 207 244 251 262 269 270 277 230 221 251 268 271 261 251 249 248 233 229 239 258 285 305 308 316 324 314 280 232 203 189 207
188 191 201 207 216 207 194 210 210 195 185 198 202 233 316 325 321 286 265 260 217 212 251 261 263 262 251 250 255 250 255 285 315 329 322 299 286 279 265 247 235 236 221
181 199 207 199 204 190 187 195 197 190 186 192 182 196 243 308 306 285 261 270 277 244 265 270 277 272 265 256 254 248 248 174 208 246 261 269 264 264 269 282 315 311 301
181 201 195 181 192 200 187 186 184 184 183 189 188 194 198 216 282 311 317 333 341 339 319 318 315 303 283 262 278 281 222 199 205 237 253 268 282 293 285 270 277 331 339
180 193 190 186 177 176 175 205 196 200 195 191 197 187 182 209 236 220 213 247 253 250 20 18 5 357 353 343 326 308 284 235 236 254 254 273 287 284 273 268 233 224 264
178 196 200 199 189 176 154 36 12 311 199 187 198 187 188 200 193 200 224 243 266 156 122 127 292 295 282 283 285 293 301 293 280 261 249 244 251 262 270 266 235 216 243
187 198 202 194 190 185 181 172 188 359 23 48 178 181 175 171 173 181 190 220 135 122 108 203 260 263 264 260 258 263 277 290 282 251 245 251 251 254 258 262 255 258 261
197 200 205 207 203 197 197 197 189 183 191 297 340 207 175 165 177 188 162 86 41 45 160 224 242 251 246 244 255 273 296 322 328 299 283 275 252 242 257 260 244 235 248
212 209 206 203 207 205 203 195 183 174 178 180 111 6 171 152 127 246 150 123 180 249 268 245 240 239 241 244 246 243 244 285 310 302 285 283 287 280 263 255 243 240 229
224 219 203 186 191 189 183 179 175 172 173 170 183 193 144 111 137 250 235 225 225 243 244 236 240 238 241 247 242 224 216 253 268 265 269 279 282 257 258 263 253 242 228
224 217 221 194 186 184 182 182 174 168 174 180 205 208 176 178 195 207 217 224 222 228 235 228 233 233 231 236 233 209 196 232 246 250 268 281 282 281 272 267 271 261 245
214 205 199 187 175 165 164 162 158 159 169 181 193 202 196 190 198 208 221 234 234 229 217 202 211 221 216 210 193 189 202 238 263 265 265 276 277 279 283 286 281 279 266
189 195 182 156 143 143 145 143 153 160 170 173 172 177 185 204 215 217 225 236 238 235 227 192 191 219 271 202 166 170 189 225 246 241 236 257 269 272 277 281 288 305 303
181 184 167 154 145 149 154 159 166 166 170 174 172 176 185 203 218 226 231 233 220 224 213 191 187 182 174 157 132 144 213 248 257 242 219 221 246 263 270 280 286 292 281
142 156 160 159 162 168 171 170 178 183 180 176 174 175 181 188 205 224 222 207 189 183 192 186 186 188 178 177 201 264 260 244 253 271 234 217 236 246 251 265 274 284 281
138 142 148 152 166 170 168 173 187 187 178 173 166 170 175 184 199 215 206 182 177 190 204 195 201 195 196 209 221 211 222 249 270 267 235 219 229 250 256 259 267 274 277